Time,TemperatureF,DewpointF,PressureIn,WindDirection,WindDirectionDegrees,WindSpeedMPH,WindSpeedGustMPH,Humidity,HourlyPrecipIn,Conditions,Clouds,dailyrainin,SoftwareType,DateUTC
2013-07-23 00:01:00,72.6,70.5,29.89,South,191,6.0,6.0,93,0.00,,,0.00,Wunderground v.1.15,2013-07-23 04:01:00,
2013-07-23 00:02:00,72.6,70.5,29.89,South,180,5.0,7.0,93,0.00,,,0.00,Wunderground v.1.15,2013-07-23 04:02:00,
2013-07-23 00:08:00,72.5,70.4,29.90,SSW,200,5.0,7.0,93,0.00,,,0.00,Wunderground v.1.15,2013-07-23 04:08:00,
2013-07-23 00:14:00,72.5,70.4,29.90,SSE,160,5.0,6.0,93,0.00,,,0.00,Wunderground v.1.15,2013-07-23 04:14:00,
2013-07-23 00:16:00,72.4,70.3,29.90,SSE,155,5.0,6.0,93,0.00,,,0.00,Wunderground v.1.15,2013-07-23 04:16:00,
2013-07-23 00:18:00,72.4,70.3,29.90,South,191,4.0,6.0,93,0.00,,,0.00,Wunderground v.1.15,2013-07-23 04:18:00,
2013-07-23 00:24:00,72.3,70.2,29.90,South,176,5.0,8.0,93,0.00,,,0.00,Wunderground v.1.15,2013-07-23 04:24:00,
2013-07-23 00:30:00,72.3,70.2,29.90,South,187,5.0,5.0,93,0.00,,,0.00,Wunderground v.1.15,2013-07-23 04:30:00,
2013-07-23 00:36:00,72.1,70.3,29.90,South,187,3.0,5.0,94,0.00,,,0.00,Wunderground v.1.15,2013-07-23 04:36:00,
2013-07-23 00:42:00,72.1,70.3,29.90,South,186,4.0,4.0,94,0.00,,,0.00,Wunderground v.1.15,2013-07-23 04:42:00,
2013-07-23 00:48:00,72.0,70.2,29.90,South,183,4.0,4.0,94,0.00,,,0.00,Wunderground v.1.15,2013-07-23 04:48:00,
2013-07-23 00:54:00,71.9,70.1,29.91,SSW,211,3.0,4.0,94,0.00,,,0.00,Wunderground v.1.15,2013-07-23 04:54:00,
2013-07-23 01:00:00,71.8,70.0,29.90,SSW,195,3.0,3.0,94,0.00,,,0.00,Wunderground v.1.15,2013-07-23 05:00:00,
2013-07-23 01:06:00,71.7,69.9,29.90,SSE,158,3.0,11.0,94,0.00,,,0.00,Wunderground v.1.15,2013-07-23 05:06:00,
2013-07-23 01:12:00,71.6,69.8,29.90,South,177,2.0,11.0,94,0.00,,,0.00,Wunderground v.1.15,2013-07-23 05:12:00,
2013-07-23 01:18:00,71.6,69.8,29.90,South,190,3.0,11.0,94,0.00,,,0.00,Wunderground v.1.15,2013-07-23 05:18:00,
2013-07-23 01:24:00,71.5,70.0,29.90,South,188,3.0,11.0,95,0.00,,,0.00,Wunderground v.1.15,2013-07-23 05:24:00,
2013-07-23 01:30:00,71.3,69.8,29.90,SW,217,3.0,11.0,95,0.00,,,0.00,Wunderground v.1.15,2013-07-23 05:30:00,
2013-07-23 01:36:00,71.2,69.7,29.90,South,186,3.0,11.0,95,0.00,,,0.00,Wunderground v.1.15,2013-07-23 05:36:00,
2013-07-23 01:42:00,71.2,69.7,29.90,SSW,205,3.0,11.0,95,0.00,,,0.00,Wunderground v.1.15,2013-07-23 05:42:00,
2013-07-23 01:48:00,71.2,69.7,29.90,SSW,213,3.0,11.0,95,0.00,,,0.00,Wunderground v.1.15,2013-07-23 05:48:00,
2013-07-23 01:54:00,71.1,69.6,29.90,SSW,195,2.0,11.0,95,0.00,,,0.00,Wunderground v.1.15,2013-07-23 05:54:00,
2013-07-23 02:00:00,71.1,69.6,29.90,South,179,3.0,11.0,95,0.00,,,0.00,Wunderground v.1.15,2013-07-23 06:00:00,
2013-07-23 02:06:00,71.1,69.6,29.90,South,183,4.0,11.0,95,0.00,,,0.00,Wunderground v.1.15,2013-07-23 06:06:00,
2013-07-23 02:12:00,71.0,69.5,29.90,South,190,3.0,11.0,95,0.00,,,0.00,Wunderground v.1.15,2013-07-23 06:12:00,
2013-07-23 02:18:00,71.0,69.5,29.89,SSE,167,4.0,11.0,95,0.00,,,0.00,Wunderground v.1.15,2013-07-23 06:18:00,
2013-07-23 02:24:00,70.9,69.1,29.90,South,187,3.0,11.0,94,0.00,,,0.00,Wunderground v.1.15,2013-07-23 06:24:00,
2013-07-23 02:30:00,70.9,69.1,29.89,South,179,3.0,11.0,94,0.00,,,0.00,Wunderground v.1.15,2013-07-23 06:30:00,
2013-07-23 02:36:00,70.8,69.0,29.90,SSE,167,3.0,11.0,94,0.00,,,0.00,Wunderground v.1.15,2013-07-23 06:36:00,
2013-07-23 02:42:00,70.8,69.0,29.90,SSW,207,4.0,11.0,94,0.00,,,0.00,Wunderground v.1.15,2013-07-23 06:42:00,
2013-07-23 02:48:00,70.8,69.0,29.90,SW,222,4.0,11.0,94,0.00,,,0.00,Wunderground v.1.15,2013-07-23 06:48:00,
2013-07-23 02:54:00,70.8,69.0,29.90,SSW,193,4.0,11.0,94,0.00,,,0.00,Wunderground v.1.15,2013-07-23 06:54:00,
2013-07-23 03:00:00,70.8,69.0,29.90,SSW,204,5.0,5.0,94,0.00,,,0.00,Wunderground v.1.15,2013-07-23 07:00:00,
2013-07-23 03:06:00,70.8,69.0,29.90,South,188,5.0,11.0,94,0.00,,,0.00,Wunderground v.1.15,2013-07-23 07:06:00,
2013-07-23 03:12:00,70.8,69.0,29.90,South,172,5.0,11.0,94,0.00,,,0.00,Wunderground v.1.15,2013-07-23 07:12:00,
2013-07-23 03:18:00,70.7,68.9,29.89,South,174,4.0,11.0,94,0.00,,,0.00,Wunderground v.1.15,2013-07-23 07:18:00,
2013-07-23 03:24:00,70.7,68.9,29.89,SSW,205,4.0,11.0,94,0.00,,,0.00,Wunderground v.1.15,2013-07-23 07:24:00,
2013-07-23 03:30:00,70.6,68.8,29.89,South,180,3.0,11.0,94,0.00,,,0.00,Wunderground v.1.15,2013-07-23 07:30:00,
2013-07-23 03:36:00,70.5,68.7,29.89,SSW,200,4.0,11.0,94,0.00,,,0.00,Wunderground v.1.15,2013-07-23 07:36:00,
2013-07-23 03:42:00,70.3,68.5,29.89,South,188,4.0,6.0,94,0.00,,,0.00,Wunderground v.1.15,2013-07-23 07:42:00,
2013-07-23 03:48:00,70.3,68.5,29.89,South,174,5.0,11.0,94,0.00,,,0.00,Wunderground v.1.15,2013-07-23 07:48:00,
2013-07-23 03:54:00,70.2,68.4,29.89,South,183,5.0,11.0,94,0.00,,,0.00,Wunderground v.1.15,2013-07-23 07:54:00,
2013-07-23 04:00:00,70.2,68.4,29.89,SSW,207,6.0,6.0,94,0.00,,,0.00,Wunderground v.1.15,2013-07-23 08:00:00,
2013-07-23 04:06:00,70.2,68.4,29.89,SSW,200,5.0,11.0,94,0.00,,,0.00,Wunderground v.1.15,2013-07-23 08:06:00,
2013-07-23 04:12:00,70.1,68.3,29.89,South,186,5.0,11.0,94,0.00,,,0.00,Wunderground v.1.15,2013-07-23 08:12:00,
2013-07-23 04:18:00,70.1,68.6,29.89,South,187,5.0,11.0,95,0.00,,,0.00,Wunderground v.1.15,2013-07-23 08:18:00,
2013-07-23 04:24:00,70.0,68.5,29.89,South,187,4.0,11.0,95,0.00,,,0.00,Wunderground v.1.15,2013-07-23 08:24:00,
2013-07-23 04:30:00,69.9,68.4,29.89,SSW,196,4.0,4.0,95,0.00,,,0.00,Wunderground v.1.15,2013-07-23 08:30:00,
2013-07-23 04:36:00,69.8,68.3,29.89,SSW,197,4.0,11.0,95,0.00,,,0.00,Wunderground v.1.15,2013-07-23 08:36:00,
2013-07-23 04:42:00,69.8,68.3,29.90,SSW,201,4.0,11.0,95,0.00,,,0.00,Wunderground v.1.15,2013-07-23 08:42:00,
2013-07-23 04:48:00,69.8,68.3,29.90,South,181,4.0,11.0,95,0.00,,,0.00,Wunderground v.1.15,2013-07-23 08:48:00,
2013-07-23 04:54:00,69.9,68.4,29.90,South,191,4.0,11.0,95,0.00,,,0.00,Wunderground v.1.15,2013-07-23 08:54:00,
2013-07-23 05:00:00,69.8,68.3,29.90,South,188,4.0,4.0,95,0.00,,,0.00,Wunderground v.1.15,2013-07-23 09:00:00,
2013-07-23 05:06:00,69.8,68.3,29.90,SSW,194,4.0,11.0,95,0.00,,,0.00,Wunderground v.1.15,2013-07-23 09:06:00,
2013-07-23 05:12:00,69.9,68.4,29.90,SSE,159,4.0,6.0,95,0.00,,,0.00,Wunderground v.1.15,2013-07-23 09:12:00,
2013-07-23 05:18:00,69.9,68.4,29.90,SSW,197,5.0,11.0,95,0.00,,,0.00,Wunderground v.1.15,2013-07-23 09:18:00,
2013-07-23 05:24:00,70.0,68.5,29.90,SSW,195,5.0,11.0,95,0.00,,,0.00,Wunderground v.1.15,2013-07-23 09:24:00,
2013-07-23 05:30:00,69.9,68.4,29.90,South,183,4.0,11.0,95,0.00,,,0.00,Wunderground v.1.15,2013-07-23 09:30:00,
2013-07-23 05:36:00,69.9,68.4,29.90,SSW,210,5.0,11.0,95,0.00,,,0.00,Wunderground v.1.15,2013-07-23 09:36:00,
2013-07-23 05:42:00,70.0,68.5,29.90,SSW,194,5.0,11.0,95,0.00,,,0.00,Wunderground v.1.15,2013-07-23 09:42:00,
2013-07-23 05:48:00,70.0,68.2,29.90,South,183,4.0,11.0,94,0.00,,,0.00,Wunderground v.1.15,2013-07-23 09:48:00,
2013-07-23 05:54:00,70.0,68.2,29.91,South,177,5.0,11.0,94,0.00,,,0.00,Wunderground v.1.15,2013-07-23 09:54:00,
2013-07-23 06:00:00,70.0,68.2,29.91,South,186,5.0,11.0,94,0.00,,,0.00,Wunderground v.1.15,2013-07-23 10:00:00,
2013-07-23 06:06:00,70.0,68.2,29.91,South,190,5.0,11.0,94,0.00,,,0.00,Wunderground v.1.15,2013-07-23 10:06:00,
2013-07-23 06:12:00,70.0,68.2,29.91,SSW,208,6.0,11.0,94,0.00,,,0.00,Wunderground v.1.15,2013-07-23 10:12:00,
2013-07-23 06:18:00,70.0,68.2,29.91,South,182,7.0,11.0,94,0.00,,,0.00,Wunderground v.1.15,2013-07-23 10:18:00,
2013-07-23 06:24:00,69.9,68.1,29.91,SSW,208,6.0,11.0,94,0.00,,,0.00,Wunderground v.1.15,2013-07-23 10:24:00,
2013-07-23 06:30:00,69.8,68.3,29.91,South,183,5.0,11.0,95,0.00,,,0.00,Wunderground v.1.15,2013-07-23 10:30:00,
2013-07-23 06:36:00,69.7,68.2,29.91,South,188,6.0,11.0,95,0.00,,,0.00,Wunderground v.1.15,2013-07-23 10:36:00,
2013-07-23 06:42:00,69.7,68.2,29.91,SSW,193,6.0,11.0,95,0.00,,,0.00,Wunderground v.1.15,2013-07-23 10:42:00,
2013-07-23 06:48:00,69.7,68.2,29.91,South,183,4.0,11.0,95,0.00,,,0.00,Wunderground v.1.15,2013-07-23 10:48:00,
2013-07-23 06:54:00,69.7,68.2,29.92,South,183,4.0,11.0,95,0.00,,,0.00,Wunderground v.1.15,2013-07-23 10:54:00,
2013-07-23 07:00:00,69.8,68.3,29.92,South,179,5.0,11.0,95,0.00,,,0.00,Wunderground v.1.15,2013-07-23 11:00:00,
2013-07-23 07:06:00,69.8,68.3,29.92,South,187,4.0,11.0,95,0.00,,,0.00,Wunderground v.1.15,2013-07-23 11:06:00,
2013-07-23 07:12:00,69.8,68.3,29.92,South,180,4.0,11.0,95,0.00,,,0.00,Wunderground v.1.15,2013-07-23 11:12:00,
2013-07-23 07:18:00,69.8,68.3,29.92,SSE,167,5.0,11.0,95,0.00,,,0.00,Wunderground v.1.15,2013-07-23 11:18:00,
2013-07-23 07:24:00,69.8,68.3,29.92,SSW,208,5.0,11.0,95,0.00,,,0.00,Wunderground v.1.15,2013-07-23 11:24:00,
2013-07-23 07:30:00,69.8,68.3,29.91,SSW,210,5.0,11.0,95,0.00,,,0.00,Wunderground v.1.15,2013-07-23 11:30:00,
2013-07-23 07:36:00,69.9,68.4,29.91,South,169,4.0,11.0,95,0.00,,,0.00,Wunderground v.1.15,2013-07-23 11:36:00,
2013-07-23 07:42:00,70.0,68.2,29.91,South,187,3.0,11.0,94,0.00,,,0.00,Wunderground v.1.15,2013-07-23 11:42:00,
2013-07-23 07:48:00,70.1,68.3,29.91,SSW,198,3.0,11.0,94,0.00,,,0.00,Wunderground v.1.15,2013-07-23 11:48:00,
2013-07-23 07:54:00,70.2,68.4,29.91,South,187,3.0,11.0,94,0.00,,,0.00,Wunderground v.1.15,2013-07-23 11:54:00,
2013-07-23 08:00:00,70.2,68.4,29.91,South,184,4.0,4.0,94,0.00,,,0.00,Wunderground v.1.15,2013-07-23 12:00:00,
2013-07-23 08:06:00,70.2,68.4,29.91,SSE,165,2.0,11.0,94,0.00,,,0.00,Wunderground v.1.15,2013-07-23 12:06:00,
2013-07-23 08:12:00,70.3,68.5,29.91,SSE,167,1.0,11.0,94,0.00,,,0.00,Wunderground v.1.15,2013-07-23 12:12:00,
2013-07-23 08:18:00,70.3,68.5,29.91,South,186,3.0,11.0,94,0.00,,,0.00,Wunderground v.1.15,2013-07-23 12:18:00,
2013-07-23 08:24:00,70.3,68.5,29.91,SSE,159,4.0,11.0,94,0.00,,,0.00,Wunderground v.1.15,2013-07-23 12:24:00,
2013-07-23 08:30:00,70.4,68.6,29.91,South,187,4.0,11.0,94,0.00,,,0.00,Wunderground v.1.15,2013-07-23 12:30:00,
2013-07-23 08:36:00,70.7,68.9,29.91,South,177,5.0,11.0,94,0.00,,,0.00,Wunderground v.1.15,2013-07-23 12:36:00,
2013-07-23 08:42:00,70.9,68.8,29.91,SSE,159,4.0,11.0,93,0.00,,,0.00,Wunderground v.1.15,2013-07-23 12:42:00,
2013-07-23 08:48:00,70.9,68.8,29.91,South,191,6.0,11.0,93,0.00,,,0.00,Wunderground v.1.15,2013-07-23 12:48:00,
2013-07-23 08:54:00,70.9,68.8,29.90,South,191,5.0,11.0,93,0.00,,,0.00,Wunderground v.1.15,2013-07-23 12:54:00,
2013-07-23 09:00:00,71.1,69.0,29.91,SSW,194,3.0,11.0,93,0.00,,,0.00,Wunderground v.1.15,2013-07-23 13:00:00,
2013-07-23 09:06:00,71.2,69.1,29.91,South,187,4.0,11.0,93,0.00,,,0.00,Wunderground v.1.15,2013-07-23 13:06:00,
2013-07-23 09:12:00,71.4,69.0,29.91,SSW,197,4.0,11.0,92,0.00,,,0.00,Wunderground v.1.15,2013-07-23 13:12:00,
2013-07-23 09:18:00,71.4,69.0,29.91,SSW,208,5.0,11.0,92,0.00,,,0.00,Wunderground v.1.15,2013-07-23 13:18:00,
2013-07-23 09:24:00,71.6,69.2,29.91,South,180,5.0,11.0,92,0.00,,,0.00,Wunderground v.1.15,2013-07-23 13:24:00,
2013-07-23 09:30:00,72.0,69.5,29.91,South,173,4.0,4.0,92,0.00,,,0.00,Wunderground v.1.15,2013-07-23 13:30:00,
2013-07-23 09:36:00,72.4,69.3,29.90,South,176,5.0,11.0,90,0.00,,,0.00,Wunderground v.1.15,2013-07-23 13:36:00,
2013-07-23 09:42:00,73.1,70.3,29.91,South,184,5.0,11.0,91,0.00,,,0.00,Wunderground v.1.15,2013-07-23 13:42:00,
2013-07-23 09:48:00,73.4,70.0,29.90,SSE,163,4.0,11.0,89,0.00,,,0.00,Wunderground v.1.15,2013-07-23 13:48:00,
2013-07-23 09:54:00,73.7,69.9,29.90,SSE,163,5.0,11.0,88,0.00,,,0.00,Wunderground v.1.15,2013-07-23 13:54:00,
2013-07-23 10:00:00,73.9,69.8,29.90,South,188,6.0,11.0,87,0.00,,,0.00,Wunderground v.1.15,2013-07-23 14:00:00,
2013-07-23 10:06:00,74.1,70.0,29.90,SSW,194,6.0,11.0,87,0.00,,,0.00,Wunderground v.1.15,2013-07-23 14:06:00,
2013-07-23 10:12:00,74.4,70.3,29.90,South,180,5.0,11.0,87,0.00,,,0.00,Wunderground v.1.15,2013-07-23 14:12:00,
2013-07-23 10:18:00,74.8,70.7,29.90,SSW,198,5.0,11.0,87,0.00,,,0.00,Wunderground v.1.15,2013-07-23 14:18:00,
2013-07-23 10:24:00,74.8,70.3,29.91,SSW,197,6.0,11.0,86,0.00,,,0.00,Wunderground v.1.15,2013-07-23 14:24:00,
2013-07-23 10:30:00,75.1,70.3,29.91,South,186,6.0,6.0,85,0.00,,,0.00,Wunderground v.1.15,2013-07-23 14:30:00,
2013-07-23 10:36:00,75.7,70.9,29.91,South,177,6.0,11.0,85,0.00,,,0.00,Wunderground v.1.15,2013-07-23 14:36:00,
2013-07-23 10:42:00,76.2,71.0,29.91,East,98,6.0,11.0,84,0.00,,,0.00,Wunderground v.1.15,2013-07-23 14:42:00,
2013-07-23 10:48:00,76.7,71.1,29.91,SSW,194,5.0,11.0,83,0.00,,,0.00,Wunderground v.1.15,2013-07-23 14:48:00,
2013-07-23 10:54:00,76.6,71.4,29.91,South,188,6.0,11.0,84,0.00,,,0.00,Wunderground v.1.15,2013-07-23 14:54:00,
2013-07-23 11:00:00,76.8,71.2,29.92,South,180,6.0,6.0,83,0.00,,,0.00,Wunderground v.1.15,2013-07-23 15:00:00,
2013-07-23 11:06:00,77.3,71.4,29.92,SSE,166,6.0,11.0,82,0.00,,,0.00,Wunderground v.1.15,2013-07-23 15:06:00,
2013-07-23 11:12:00,77.6,72.0,29.93,SSW,197,7.0,11.0,83,0.00,,,0.00,Wunderground v.1.15,2013-07-23 15:12:00,
2013-07-23 11:18:00,77.9,71.6,29.93,SSE,150,7.0,11.0,81,0.00,,,0.00,Wunderground v.1.15,2013-07-23 15:18:00,
2013-07-23 11:24:00,77.8,71.5,29.92,South,191,6.0,11.0,81,0.00,,,0.00,Wunderground v.1.15,2013-07-23 15:24:00,
2013-07-23 11:30:00,78.0,71.7,29.92,South,179,5.0,5.0,81,0.00,,,0.00,Wunderground v.1.15,2013-07-23 15:30:00,
2013-07-23 11:36:00,78.6,71.9,29.92,SE,142,5.0,11.0,80,0.00,,,0.00,Wunderground v.1.15,2013-07-23 15:36:00,
2013-07-23 11:42:00,78.9,71.8,29.92,South,174,5.0,11.0,79,0.00,,,0.00,Wunderground v.1.15,2013-07-23 15:42:00,
2013-07-23 11:48:00,78.9,71.8,29.92,ESE,122,4.0,11.0,79,0.00,,,0.00,Wunderground v.1.15,2013-07-23 15:48:00,
2013-07-23 11:54:00,79.0,71.6,29.92,South,190,5.0,11.0,78,0.00,,,0.00,Wunderground v.1.15,2013-07-23 15:54:00,
2013-07-23 12:00:00,79.3,71.8,29.92,SSW,203,5.0,11.0,78,0.00,,,0.00,Wunderground v.1.15,2013-07-23 16:00:00,
2013-07-23 12:06:00,79.4,72.3,29.92,ESE,115,4.0,11.0,79,0.00,,,0.00,Wunderground v.1.15,2013-07-23 16:06:00,
2013-07-23 12:12:00,79.9,72.4,29.91,East,80,4.0,11.0,78,0.00,,,0.00,Wunderground v.1.15,2013-07-23 16:12:00,
2013-07-23 12:18:00,79.9,72.0,29.91,South,179,6.0,11.0,77,0.00,,,0.00,Wunderground v.1.15,2013-07-23 16:18:00,
2013-07-23 12:24:00,80.2,73.1,29.91,SE,135,5.0,11.0,79,0.00,,,0.00,Wunderground v.1.15,2013-07-23 16:24:00,
2013-07-23 12:30:00,79.8,71.9,29.91,SE,136,6.0,11.0,77,0.00,,,0.00,Wunderground v.1.15,2013-07-23 16:30:00,
2013-07-23 12:36:00,80.0,71.8,29.90,SSE,160,8.0,11.0,76,0.00,,,0.00,Wunderground v.1.15,2013-07-23 16:36:00,
2013-07-23 12:42:00,80.4,71.7,29.90,ESE,118,7.0,11.0,75,0.00,,,0.00,Wunderground v.1.15,2013-07-23 16:42:00,
2013-07-23 12:48:00,80.6,73.1,29.90,SSE,160,8.0,11.0,78,0.00,,,0.00,Wunderground v.1.15,2013-07-23 16:48:00,
2013-07-23 12:54:00,80.3,72.4,29.89,ESE,113,7.0,11.0,77,0.00,,,0.00,Wunderground v.1.15,2013-07-23 16:54:00,
2013-07-23 13:00:00,79.9,71.3,29.89,SE,145,6.0,11.0,75,0.00,,,0.00,Wunderground v.1.15,2013-07-23 17:00:00,
2013-07-23 13:06:00,80.2,72.3,29.89,South,177,6.0,11.0,77,0.00,,,0.00,Wunderground v.1.15,2013-07-23 17:06:00,
2013-07-23 13:12:00,80.6,71.9,29.88,SE,138,6.0,11.0,75,0.00,,,0.00,Wunderground v.1.15,2013-07-23 17:12:00,
2013-07-23 13:18:00,81.2,72.5,29.88,SSE,166,6.0,11.0,75,0.00,,,0.00,Wunderground v.1.15,2013-07-23 17:18:00,
2013-07-23 13:24:00,81.1,72.4,29.88,SE,139,5.0,11.0,75,0.00,,,0.00,Wunderground v.1.15,2013-07-23 17:24:00,
2013-07-23 13:30:00,80.5,72.2,29.88,SE,142,5.0,5.0,76,0.00,,,0.00,Wunderground v.1.15,2013-07-23 17:30:00,
2013-07-23 13:36:00,80.3,72.4,29.87,East,89,5.0,11.0,77,0.00,,,0.00,Wunderground v.1.15,2013-07-23 17:36:00,
2013-07-23 13:42:00,80.7,71.6,29.87,South,170,4.0,11.0,74,0.00,,,0.00,Wunderground v.1.15,2013-07-23 17:42:00,
2013-07-23 13:48:00,81.2,71.3,29.86,SSE,158,4.0,11.0,72,0.00,,,0.00,Wunderground v.1.15,2013-07-23 17:48:00,
2013-07-23 13:54:00,81.5,72.4,29.87,SSE,147,5.0,11.0,74,0.00,,,0.00,Wunderground v.1.15,2013-07-23 17:54:00,
2013-07-23 14:00:00,81.5,72.0,29.87,South,169,7.0,11.0,73,0.00,,,0.00,Wunderground v.1.15,2013-07-23 18:00:00,
2013-07-23 14:06:00,81.1,72.0,29.87,SSE,149,8.0,11.0,74,0.00,,,0.00,Wunderground v.1.15,2013-07-23 18:06:00,
2013-07-23 14:12:00,80.7,72.4,29.87,South,170,7.0,11.0,76,0.00,,,0.00,Wunderground v.1.15,2013-07-23 18:12:00,
2013-07-23 14:18:00,80.5,72.6,29.86,South,183,6.0,11.0,77,0.00,,,0.00,Wunderground v.1.15,2013-07-23 18:18:00,
2013-07-23 14:26:00,81.1,72.4,29.86,SSE,160,7.0,12.0,75,0.00,,,0.00,Wunderground v.1.15,2013-07-23 18:26:00,
2013-07-23 14:32:00,81.3,72.6,29.86,SSE,160,9.0,12.0,75,0.00,,,0.00,Wunderground v.1.15,2013-07-23 18:32:00,
2013-07-23 14:40:00,81.2,72.1,29.85,SE,129,9.0,11.0,74,0.00,,,0.00,Wunderground v.1.15,2013-07-23 18:40:00,
2013-07-23 14:46:00,81.8,73.1,29.85,SSE,165,7.0,11.0,75,0.00,,,0.00,Wunderground v.1.15,2013-07-23 18:46:00,
2013-07-23 14:52:00,81.6,72.5,29.85,South,183,7.0,9.0,74,0.00,,,0.00,Wunderground v.1.15,2013-07-23 18:52:00,
2013-07-23 14:58:00,81.9,73.2,29.84,South,190,8.0,11.0,75,0.00,,,0.00,Wunderground v.1.15,2013-07-23 18:58:00,
2013-07-23 15:04:00,82.1,73.4,29.84,South,179,8.0,11.0,75,0.00,,,0.00,Wunderground v.1.15,2013-07-23 19:04:00,
2013-07-23 15:10:00,83.0,73.9,29.84,South,188,6.0,6.0,74,0.00,,,0.00,Wunderground v.1.15,2013-07-23 19:10:00,
2013-07-23 15:16:00,83.4,73.4,29.84,South,178,5.0,11.0,72,0.00,,,0.00,Wunderground v.1.15,2013-07-23 19:16:00,
2013-07-23 15:24:00,83.1,72.7,29.83,SW,214,7.0,11.0,71,0.00,,,0.00,Wunderground v.1.15,2013-07-23 19:24:00,
2013-07-23 15:30:00,82.9,72.5,29.83,South,181,6.0,11.0,71,0.00,,,0.00,Wunderground v.1.15,2013-07-23 19:30:00,
2013-07-23 15:36:00,83.2,73.2,29.83,South,189,6.0,11.0,72,0.00,,,0.00,Wunderground v.1.15,2013-07-23 19:36:00,
2013-07-23 15:44:00,83.2,73.2,29.83,South,176,6.0,11.0,72,0.00,,,0.00,Wunderground v.1.15,2013-07-23 19:44:00,
2013-07-23 15:50:00,83.2,72.8,29.82,SSE,168,6.0,11.0,71,0.00,,,0.00,Wunderground v.1.15,2013-07-23 19:50:00,
2013-07-23 15:56:00,83.1,72.3,29.82,SSE,165,8.0,11.0,70,0.00,,,0.00,Wunderground v.1.15,2013-07-23 19:56:00,
2013-07-23 16:02:00,82.4,72.9,29.81,South,176,7.0,11.0,73,0.00,,,0.00,Wunderground v.1.15,2013-07-23 20:02:00,
2013-07-23 16:10:00,82.0,72.1,29.81,South,170,7.0,11.0,72,0.00,,,0.00,Wunderground v.1.15,2013-07-23 20:10:00,
2013-07-23 16:16:00,81.5,72.0,29.81,South,181,8.0,11.0,73,0.00,,,0.00,Wunderground v.1.15,2013-07-23 20:16:00,
2013-07-23 16:22:00,81.2,72.5,29.82,South,188,7.0,11.0,75,0.00,,,0.00,Wunderground v.1.15,2013-07-23 20:22:00,
2013-07-23 16:28:00,80.9,72.2,29.81,South,183,6.0,11.0,75,0.00,,,0.00,Wunderground v.1.15,2013-07-23 20:28:00,
2013-07-23 16:34:00,80.7,72.4,29.81,SSW,204,4.0,11.0,76,0.00,,,0.00,Wunderground v.1.15,2013-07-23 20:34:00,
2013-07-23 16:40:00,80.5,72.6,29.81,SSW,197,3.0,11.0,77,0.00,,,0.00,Wunderground v.1.15,2013-07-23 20:40:00,
2013-07-23 16:46:00,80.4,72.1,29.82,SSW,195,4.0,11.0,76,0.00,,,0.00,Wunderground v.1.15,2013-07-23 20:46:00,
2013-07-23 16:52:00,80.2,72.3,29.81,SW,226,5.0,11.0,77,0.00,,,0.00,Wunderground v.1.15,2013-07-23 20:52:00,
2013-07-23 17:00:00,80.0,72.9,29.82,SW,225,2.0,2.0,79,0.00,,,0.00,Wunderground v.1.15,2013-07-23 21:00:00,
2013-07-23 17:06:00,79.6,73.6,29.83,SSW,212,1.0,11.0,82,0.00,,,0.00,Wunderground v.1.15,2013-07-23 21:06:00,
2013-07-23 17:12:00,76.4,69.8,29.83,NW,305,7.0,11.0,80,2.09,,,0.05,Wunderground v.1.15,2013-07-23 21:12:00,
2013-07-23 17:20:00,71.2,67.5,29.84,South,172,9.0,9.0,88,1.19,,,0.30,Wunderground v.1.15,2013-07-23 21:20:00,
2013-07-23 17:26:00,70.0,67.6,29.84,SE,134,5.0,11.0,92,0.15,,,0.31,Wunderground v.1.15,2013-07-23 21:26:00,
2013-07-23 17:32:00,70.0,68.5,29.84,NNE,32,3.0,11.0,95,0.06,,,0.31,Wunderground v.1.15,2013-07-23 21:32:00,
2013-07-23 17:38:00,70.1,68.3,29.85,ENE,76,5.0,11.0,94,0.04,,,0.31,Wunderground v.1.15,2013-07-23 21:38:00,
2013-07-23 17:44:00,70.0,68.5,29.84,East,91,3.0,11.0,95,0.00,,,0.31,Wunderground v.1.15,2013-07-23 21:44:00,
2013-07-23 17:50:00,70.1,68.6,29.84,ENE,65,3.0,3.0,95,0.00,,,0.31,Wunderground v.1.15,2013-07-23 21:50:00,
2013-07-23 17:56:00,70.3,69.1,29.83,NNE,18,3.0,11.0,96,0.00,,,0.31,Wunderground v.1.15,2013-07-23 21:56:00,
2013-07-23 18:02:00,70.5,69.0,29.84,SSE,162,4.0,11.0,95,0.00,,,0.31,Wunderground v.1.15,2013-07-23 22:02:00,
2013-07-23 18:08:00,70.1,68.3,29.84,SSE,149,4.0,11.0,94,0.00,,,0.31,Wunderground v.1.15,2013-07-23 22:08:00,
2013-07-23 18:14:00,69.8,68.3,29.84,SSW,197,3.0,11.0,95,0.00,,,0.31,Wunderground v.1.15,2013-07-23 22:14:00,
2013-07-23 18:20:00,69.8,68.3,29.83,NW,317,1.0,1.0,95,0.00,,,0.31,Wunderground v.1.15,2013-07-23 22:20:00,
2013-07-23 18:28:00,69.6,68.1,29.83,NW,309,0.0,11.0,95,0.00,,,0.31,Wunderground v.1.15,2013-07-23 22:28:00,
2013-07-23 18:34:00,69.6,68.4,29.83,East,86,0.0,11.0,96,0.00,,,0.31,Wunderground v.1.15,2013-07-23 22:34:00,
2013-07-23 18:40:00,69.5,68.0,29.83,SSE,166,0.0,11.0,95,0.00,,,0.31,Wunderground v.1.15,2013-07-23 22:40:00,
2013-07-23 18:46:00,69.5,68.3,29.83,SE,131,2.0,11.0,96,0.00,,,0.31,Wunderground v.1.15,2013-07-23 22:46:00,
2013-07-23 18:52:00,69.6,68.4,29.83,SE,141,4.0,11.0,96,0.00,,,0.31,Wunderground v.1.15,2013-07-23 22:52:00,
2013-07-23 18:58:00,69.5,68.3,29.82,SE,132,4.0,11.0,96,0.00,,,0.31,Wunderground v.1.15,2013-07-23 22:58:00,
2013-07-23 19:04:00,69.5,68.3,29.82,South,190,3.0,11.0,96,0.00,,,0.32,Wunderground v.1.15,2013-07-23 23:04:00,
2013-07-23 19:10:00,69.6,68.4,29.82,SSW,200,2.0,11.0,96,0.00,,,0.32,Wunderground v.1.15,2013-07-23 23:10:00,
2013-07-23 19:16:00,69.7,68.5,29.83,WSW,253,2.0,11.0,96,0.00,,,0.32,Wunderground v.1.15,2013-07-23 23:16:00,
2013-07-23 19:22:00,69.7,68.5,29.82,SE,130,1.0,11.0,96,0.00,,,0.32,Wunderground v.1.15,2013-07-23 23:22:00,
2013-07-23 19:28:00,70.0,68.8,29.82,South,190,1.0,11.0,96,0.00,,,0.32,Wunderground v.1.15,2013-07-23 23:28:00,
2013-07-23 19:34:00,70.2,69.0,29.82,South,186,2.0,11.0,96,0.00,,,0.32,Wunderground v.1.15,2013-07-23 23:34:00,
2013-07-23 19:40:00,70.5,69.3,29.82,SSW,207,2.0,2.0,96,0.00,,,0.32,Wunderground v.1.15,2013-07-23 23:40:00,
2013-07-23 19:48:00,70.4,69.2,29.82,NW,320,0.0,11.0,96,0.00,,,0.32,Wunderground v.1.15,2013-07-23 23:48:00,
2013-07-23 19:54:00,70.3,69.1,29.82,SW,217,1.0,11.0,96,0.00,,,0.32,Wunderground v.1.15,2013-07-23 23:54:00,
2013-07-23 20:00:00,70.3,69.1,29.83,SW,222,1.0,1.0,96,0.00,,,0.32,Wunderground v.1.15,2013-07-24 00:00:00,
2013-07-23 20:06:00,70.4,69.2,29.83,SW,223,0.0,1.0,96,0.00,,,0.32,Wunderground v.1.15,2013-07-24 00:06:00,
2013-07-23 20:12:00,70.4,69.2,29.83,SW,222,0.0,0.0,96,0.00,,,0.32,Wunderground v.1.15,2013-07-24 00:12:00,
2013-07-23 20:18:00,70.5,69.3,29.83,SSE,162,1.0,1.0,96,0.00,,,0.32,Wunderground v.1.15,2013-07-24 00:18:00,
2013-07-23 20:24:00,70.5,69.3,29.82,SSW,194,1.0,1.0,96,0.00,,,0.32,Wunderground v.1.15,2013-07-24 00:24:00,
2013-07-23 20:32:00,70.4,69.2,29.82,South,177,1.0,1.0,96,0.00,,,0.32,Wunderground v.1.15,2013-07-24 00:32:00,
2013-07-23 20:40:00,70.3,69.4,29.83,South,177,0.0,0.0,97,0.00,,,0.32,Wunderground v.1.15,2013-07-24 00:40:00,
2013-07-23 20:48:00,70.2,69.3,29.83,South,177,0.0,0.0,97,0.00,,,0.32,Wunderground v.1.15,2013-07-24 00:48:00,
2013-07-23 20:56:00,70.1,69.2,29.83,South,188,0.0,1.0,97,0.00,,,0.32,Wunderground v.1.15,2013-07-24 00:56:00,
2013-07-23 21:02:00,69.9,69.0,29.83,South,179,1.0,2.0,97,0.00,,,0.32,Wunderground v.1.15,2013-07-24 01:02:00,
2013-07-23 21:08:00,69.8,68.9,29.83,South,177,2.0,4.0,97,0.00,,,0.32,Wunderground v.1.15,2013-07-24 01:08:00,
2013-07-23 21:14:00,69.7,68.8,29.83,SE,145,1.0,4.0,97,0.00,,,0.32,Wunderground v.1.15,2013-07-24 01:14:00,
2013-07-23 21:20:00,69.6,68.7,29.84,SSE,150,0.0,4.0,97,0.00,,,0.32,Wunderground v.1.15,2013-07-24 01:20:00,
2013-07-23 21:28:00,69.6,68.7,29.84,SSE,160,0.0,4.0,97,0.00,,,0.32,Wunderground v.1.15,2013-07-24 01:28:00,
2013-07-23 21:38:00,69.6,68.7,29.84,SSE,167,0.0,4.0,97,0.00,,,0.32,Wunderground v.1.15,2013-07-24 01:38:00,
2013-07-23 21:44:00,69.6,68.7,29.84,SSE,167,0.0,4.0,97,0.00,,,0.32,Wunderground v.1.15,2013-07-24 01:44:00,
2013-07-23 21:50:00,69.5,68.6,29.85,SSE,167,0.0,4.0,97,0.00,,,0.32,Wunderground v.1.15,2013-07-24 01:50:00,
2013-07-23 21:56:00,69.6,68.7,29.85,SSE,167,0.0,4.0,97,0.00,,,0.32,Wunderground v.1.15,2013-07-24 01:56:00,
2013-07-23 22:02:00,69.6,68.7,29.85,SSE,159,1.0,4.0,97,0.00,,,0.32,Wunderground v.1.15,2013-07-24 02:02:00,
2013-07-23 22:08:00,69.6,68.7,29.85,SSE,159,0.0,4.0,97,0.00,,,0.32,Wunderground v.1.15,2013-07-24 02:08:00,
2013-07-23 22:14:00,69.4,68.5,29.85,South,183,0.0,4.0,97,0.00,,,0.32,Wunderground v.1.15,2013-07-24 02:14:00,
2013-07-23 22:20:00,69.3,68.4,29.85,South,188,1.0,1.0,97,0.00,,,0.32,Wunderground v.1.15,2013-07-24 02:20:00,
2013-07-23 22:26:00,69.2,68.3,29.85,SSW,194,1.0,4.0,97,0.00,,,0.32,Wunderground v.1.15,2013-07-24 02:26:00,
2013-07-23 22:32:00,69.2,68.3,29.86,SSW,201,0.0,4.0,97,0.00,,,0.32,Wunderground v.1.15,2013-07-24 02:32:00,
2013-07-23 22:40:00,69.1,68.2,29.85,SSW,200,0.0,4.0,97,0.00,,,0.32,Wunderground v.1.15,2013-07-24 02:40:00,
2013-07-23 22:46:00,68.9,68.0,29.85,SSW,199,0.0,4.0,97,0.00,,,0.32,Wunderground v.1.15,2013-07-24 02:46:00,
2013-07-23 22:54:00,68.8,67.9,29.85,SW,214,0.0,4.0,97,0.00,,,0.32,Wunderground v.1.15,2013-07-24 02:54:00,
2013-07-23 23:02:00,68.9,68.0,29.86,SSW,213,0.0,4.0,97,0.00,,,0.32,Wunderground v.1.15,2013-07-24 03:02:00,
2013-07-23 23:08:00,69.0,68.4,29.86,SSW,213,0.0,4.0,98,0.00,,,0.32,Wunderground v.1.15,2013-07-24 03:08:00,
2013-07-23 23:14:00,69.0,68.4,29.86,SW,214,0.0,4.0,98,0.00,,,0.32,Wunderground v.1.15,2013-07-24 03:14:00,
2013-07-23 23:22:00,69.0,68.4,29.86,SW,214,0.0,4.0,98,0.00,,,0.32,Wunderground v.1.15,2013-07-24 03:22:00,
2013-07-23 23:28:00,69.1,68.5,29.86,SW,214,0.0,4.0,98,0.00,,,0.32,Wunderground v.1.15,2013-07-24 03:28:00,
2013-07-23 23:34:00,69.2,68.6,29.87,SW,214,0.0,4.0,98,0.00,,,0.32,Wunderground v.1.15,2013-07-24 03:34:00,
2013-07-23 23:40:00,69.3,68.7,29.86,SW,214,0.0,4.0,98,0.00,,,0.32,Wunderground v.1.15,2013-07-24 03:40:00,
2013-07-23 23:48:00,69.4,68.8,29.87,SW,214,0.0,4.0,98,0.00,,,0.32,Wunderground v.1.15,2013-07-24 03:48:00,
2013-07-23 23:54:00,69.4,68.8,29.86,SSE,167,0.0,4.0,98,0.00,,,0.32,Wunderground v.1.15,2013-07-24 03:54:00,